Time,TemperatureF,DewpointF,PressureIn,WindDirection,WindDirectionDegrees,WindSpeedMPH,WindSpeedGustMPH,Humidity,HourlyPrecipIn,Conditions,Clouds,dailyrainin,SoftwareType,DateUTC
2013-01-20 00:02:00,19.0,12.0,30.35,NNW,327,5.0,12.0,73,0.00,,,0.00,,2013-01-20 06:02:00,
2013-01-20 00:12:00,19.0,12.0,30.35,NNW,327,5.0,12.0,73,0.00,,,0.00,,2013-01-20 06:12:00,
2013-01-20 00:22:00,19.0,11.0,30.36,WNW,303,5.0,15.0,70,0.00,,,0.00,,2013-01-20 06:22:00,
2013-01-20 00:33:00,18.0,10.0,30.37,NW,304,7.0,16.0,70,0.00,,,0.00,,2013-01-20 06:33:00,
2013-01-20 00:42:00,18.0,10.0,30.37,NW,304,7.0,16.0,70,0.00,,,0.00,,2013-01-20 06:42:00,
2013-01-20 00:53:00,18.0,10.0,30.37,NW,313,5.0,13.0,69,0.00,,,0.00,,2013-01-20 06:53:00,
2013-01-20 01:02:00,17.0,9.0,30.36,WNW,298,8.0,13.0,70,0.00,,,0.00,,2013-01-20 07:02:00,
2013-01-20 01:12:00,17.0,9.0,30.36,WNW,298,8.0,13.0,70,0.00,,,0.00,,2013-01-20 07:12:00,
2013-01-20 01:22:00,17.0,9.0,30.36,WNW,298,8.0,13.0,70,0.00,,,0.00,,2013-01-20 07:22:00,
2013-01-20 01:32:00,16.0,8.0,30.35,NNW,337,7.0,13.0,70,0.00,,,0.00,,2013-01-20 07:32:00,
2013-01-20 01:42:00,16.0,8.0,30.35,NNW,337,7.0,13.0,70,0.00,,,0.00,,2013-01-20 07:42:00,
2013-01-20 01:52:00,16.0,8.0,30.35,North,355,6.0,12.0,71,0.00,,,0.00,,2013-01-20 07:52:00,
2013-01-20 02:02:00,16.0,8.0,30.34,NNW,344,4.0,9.0,71,0.00,,,0.00,,2013-01-20 08:02:00,
2013-01-20 02:12:00,16.0,8.0,30.34,NNW,344,4.0,9.0,71,0.00,,,0.00,,2013-01-20 08:12:00,
2013-01-20 02:22:00,15.0,8.0,30.35,North,355,7.0,13.0,72,0.00,,,0.00,,2013-01-20 08:22:00,
2013-01-20 02:32:00,15.0,7.0,30.35,NW,310,5.0,12.0,71,0.00,,,0.00,,2013-01-20 08:32:00,
2013-01-20 02:42:00,15.0,7.0,30.35,NW,310,5.0,12.0,71,0.00,,,0.00,,2013-01-20 08:42:00,
2013-01-20 02:52:00,15.0,7.0,30.37,NW,309,1.0,8.0,71,0.00,,,0.00,,2013-01-20 08:52:00,
2013-01-20 03:02:00,15.0,7.0,30.36,NW,313,2.0,6.0,71,0.00,,,0.00,,2013-01-20 09:02:00,
2013-01-20 03:12:00,15.0,7.0,30.36,NW,313,2.0,6.0,71,0.00,,,0.00,,2013-01-20 09:12:00,
2013-01-20 03:22:00,15.0,7.0,30.36,NW,315,4.0,9.0,71,0.00,,,0.00,,2013-01-20 09:22:00,
2013-01-20 03:33:00,14.0,7.0,30.36,NNW,328,5.0,9.0,72,0.00,,,0.00,,2013-01-20 09:33:00,
2013-01-20 03:42:00,14.0,7.0,30.36,NNW,328,5.0,9.0,72,0.00,,,0.00,,2013-01-20 09:42:00,
2013-01-20 03:53:00,14.0,7.0,30.35,NNW,328,3.0,8.0,73,0.00,,,0.00,,2013-01-20 09:53:00,
2013-01-20 04:02:00,14.0,7.0,30.35,NW,309,3.0,7.0,72,0.00,,,0.00,,2013-01-20 10:02:00,
2013-01-20 04:12:00,14.0,7.0,30.35,NW,309,3.0,7.0,72,0.00,,,0.00,,2013-01-20 10:12:00,
2013-01-20 04:22:00,14.0,7.0,30.35,NNW,348,3.0,8.0,72,0.00,,,0.00,,2013-01-20 10:22:00,
2013-01-20 04:32:00,14.0,7.0,30.35,NNW,333,3.0,6.0,72,0.00,,,0.00,,2013-01-20 10:32:00,
2013-01-20 04:42:00,14.0,7.0,30.35,NNW,333,3.0,6.0,72,0.00,,,0.00,,2013-01-20 10:42:00,
2013-01-20 04:52:00,14.0,7.0,30.35,NNW,334,3.0,7.0,73,0.00,,,0.00,,2013-01-20 10:52:00,
2013-01-20 05:02:00,14.0,7.0,30.35,WNW,303,4.0,7.0,73,0.00,,,0.00,,2013-01-20 11:02:00,
2013-01-20 05:12:00,14.0,7.0,30.35,WNW,303,4.0,7.0,73,0.00,,,0.00,,2013-01-20 11:12:00,
2013-01-20 05:22:00,13.0,6.0,30.36,North,360,3.0,7.0,73,0.00,,,0.00,,2013-01-20 11:22:00,
2013-01-20 05:32:00,13.0,6.0,30.35,NNE,21,2.0,5.0,73,0.00,,,0.00,,2013-01-20 11:32:00,
2013-01-20 05:42:00,13.0,6.0,30.35,NNE,21,2.0,5.0,73,0.00,,,0.00,,2013-01-20 11:42:00,
2013-01-20 05:53:00,13.0,6.0,30.35,North,9,2.0,5.0,74,0.00,,,0.00,,2013-01-20 11:53:00,
2013-01-20 06:03:00,13.0,6.0,30.35,NW,319,1.0,8.0,72,0.00,,,0.00,,2013-01-20 12:03:00,
2013-01-20 06:12:00,13.0,6.0,30.35,NW,319,1.0,8.0,72,0.00,,,0.00,,2013-01-20 12:12:00,
2013-01-20 06:23:00,13.0,6.0,30.36,NNE,26,2.0,4.0,72,0.00,,,0.00,,2013-01-20 12:23:00,
2013-01-20 06:33:00,13.0,6.0,30.37,NNE,12,2.0,7.0,74,0.00,,,0.00,,2013-01-20 12:33:00,
2013-01-20 06:43:00,13.0,6.0,30.37,NNE,12,2.0,7.0,74,0.00,,,0.00,,2013-01-20 12:43:00,
2013-01-20 06:53:00,13.0,6.0,30.36,NNE,15,2.0,7.0,74,0.00,,,0.00,,2013-01-20 12:53:00,
2013-01-20 07:02:00,12.0,6.0,30.37,NE,35,3.0,6.0,75,0.00,,,0.00,,2013-01-20 13:02:00,
2013-01-20 07:12:00,12.0,6.0,30.37,NE,35,3.0,6.0,75,0.00,,,0.00,,2013-01-20 13:12:00,
2013-01-20 07:23:00,12.0,6.0,30.37,North,5,4.0,8.0,76,0.00,,,0.00,,2013-01-20 13:23:00,
2013-01-20 07:33:00,12.0,6.0,30.38,NNE,12,5.0,7.0,75,0.00,,,0.00,,2013-01-20 13:33:00,
2013-01-20 07:42:00,12.0,6.0,30.38,NNE,12,5.0,7.0,75,0.00,,,0.00,,2013-01-20 13:42:00,
2013-01-20 07:53:00,12.0,6.0,30.38,NNE,24,1.0,4.0,76,0.00,,,0.00,,2013-01-20 13:53:00,
2013-01-20 08:02:00,12.0,6.0,30.38,NE,46,2.0,5.0,76,0.00,,,0.00,,2013-01-20 14:02:00,
2013-01-20 08:12:00,12.0,6.0,30.38,NE,46,2.0,5.0,76,0.00,,,0.00,,2013-01-20 14:12:00,
2013-01-20 08:23:00,12.0,6.0,30.38,NE,50,3.0,5.0,76,0.00,,,0.00,,2013-01-20 14:23:00,
2013-01-20 08:33:00,13.0,7.0,30.38,ENE,57,2.0,5.0,76,0.00,,,0.00,,2013-01-20 14:33:00,
2013-01-20 08:42:00,13.0,7.0,30.38,ENE,57,2.0,5.0,76,0.00,,,0.00,,2013-01-20 14:42:00,
2013-01-20 08:53:00,13.0,7.0,30.39,NNE,29,3.0,6.0,75,0.00,,,0.00,,2013-01-20 14:53:00,
2013-01-20 09:03:00,13.0,6.0,30.40,North,9,3.0,6.0,74,0.00,,,0.00,,2013-01-20 15:03:00,
2013-01-20 09:12:00,13.0,6.0,30.40,North,9,3.0,6.0,74,0.00,,,0.00,,2013-01-20 15:12:00,
2013-01-20 09:23:00,13.0,6.0,30.41,NNE,28,4.0,8.0,73,0.00,,,0.00,,2013-01-20 15:23:00,
2013-01-20 09:33:00,13.0,5.0,30.41,NE,34,7.0,11.0,71,0.00,,,0.00,,2013-01-20 15:33:00,
2013-01-20 09:42:00,13.0,5.0,30.41,NE,34,7.0,11.0,71,0.00,,,0.00,,2013-01-20 15:42:00,
2013-01-20 09:53:00,13.0,5.0,30.41,NE,52,5.0,10.0,69,0.00,,,0.00,,2013-01-20 15:53:00,
2013-01-20 10:03:00,14.0,5.0,30.41,North,5,5.0,11.0,67,0.00,,,0.00,,2013-01-20 16:03:00,
2013-01-20 10:12:00,14.0,5.0,30.41,North,5,5.0,11.0,67,0.00,,,0.00,,2013-01-20 16:12:00,
2013-01-20 10:23:00,14.0,5.0,30.41,NNE,19,6.0,11.0,66,0.00,,,0.00,,2013-01-20 16:23:00,
2013-01-20 10:33:00,14.0,6.0,30.42,North,355,4.0,8.0,69,0.00,,,0.00,,2013-01-20 16:33:00,
2013-01-20 10:43:00,14.0,6.0,30.42,North,355,4.0,8.0,69,0.00,,,0.00,,2013-01-20 16:43:00,
2013-01-20 10:53:00,14.0,6.0,30.43,NNE,16,3.0,8.0,70,0.00,,,0.00,,2013-01-20 16:53:00,
2013-01-20 11:03:00,15.0,6.0,30.45,NNW,348,4.0,9.0,68,0.00,,,0.00,,2013-01-20 17:03:00,
2013-01-20 11:12:00,15.0,6.0,30.45,NNW,348,4.0,9.0,68,0.00,,,0.00,,2013-01-20 17:12:00,
2013-01-20 11:22:00,14.0,5.0,30.45,NE,38,4.0,10.0,66,0.00,,,0.00,,2013-01-20 17:22:00,
2013-01-20 11:33:00,15.0,6.0,30.46,NW,323,4.0,9.0,68,0.00,,,0.00,,2013-01-20 17:33:00,
2013-01-20 11:42:00,15.0,6.0,30.46,NW,323,4.0,9.0,68,0.00,,,0.00,,2013-01-20 17:42:00,
2013-01-20 11:53:00,15.0,5.0,30.47,NW,304,7.0,11.0,65,0.00,,,0.00,,2013-01-20 17:53:00,
2013-01-20 12:03:00,15.0,5.0,30.46,North,9,5.0,10.0,64,0.00,,,0.00,,2013-01-20 18:03:00,
2013-01-20 12:12:00,15.0,5.0,30.46,North,9,5.0,10.0,64,0.00,,,0.00,,2013-01-20 18:12:00,
2013-01-20 12:23:00,15.0,5.0,30.46,North,5,4.0,9.0,64,0.00,,,0.00,,2013-01-20 18:23:00,
2013-01-20 12:33:00,15.0,5.0,30.45,NNW,340,2.0,6.0,65,0.00,,,0.00,,2013-01-20 18:33:00,
2013-01-20 12:43:00,15.0,5.0,30.45,NNW,340,2.0,6.0,65,0.00,,,0.00,,2013-01-20 18:43:00,
2013-01-20 12:53:00,15.0,5.0,30.45,WNW,289,5.0,8.0,63,0.00,,,0.00,,2013-01-20 18:53:00,
2013-01-20 13:02:00,16.0,6.0,30.45,NW,322,3.0,7.0,63,0.00,,,0.00,,2013-01-20 19:02:00,
2013-01-20 13:12:00,16.0,6.0,30.45,NW,322,3.0,7.0,63,0.00,,,0.00,,2013-01-20 19:12:00,
2013-01-20 13:22:00,16.0,6.0,30.44,NNW,344,5.0,11.0,63,0.00,,,0.00,,2013-01-20 19:22:00,
2013-01-20 13:33:00,16.0,6.0,30.43,NNW,342,2.0,9.0,65,0.00,,,0.00,,2013-01-20 19:33:00,
2013-01-20 13:42:00,16.0,6.0,30.43,NNW,342,2.0,9.0,65,0.00,,,0.00,,2013-01-20 19:42:00,
2013-01-20 13:53:00,16.0,6.0,30.44,North,9,3.0,7.0,65,0.00,,,0.00,,2013-01-20 19:53:00,
2013-01-20 14:03:00,16.0,7.0,30.44,NW,308,4.0,9.0,66,0.00,,,0.00,,2013-01-20 20:03:00,
2013-01-20 14:12:00,16.0,7.0,30.44,NW,308,4.0,9.0,66,0.00,,,0.00,,2013-01-20 20:12:00,
2013-01-20 14:22:00,16.0,8.0,30.44,NNW,338,2.0,11.0,70,0.00,,,0.00,,2013-01-20 20:22:00,
2013-01-20 14:33:00,15.0,9.0,30.44,NNW,331,4.0,10.0,76,0.00,,,0.00,,2013-01-20 20:33:00,
2013-01-20 14:42:00,15.0,9.0,30.44,NNW,331,4.0,10.0,76,0.00,,,0.00,,2013-01-20 20:42:00,
2013-01-20 14:53:00,15.0,9.0,30.45,NW,320,6.0,9.0,76,0.00,,,0.00,,2013-01-20 20:53:00,
2013-01-20 15:03:00,16.0,10.0,30.45,NNW,341,5.0,10.0,78,0.00,,,0.00,,2013-01-20 21:03:00,
2013-01-20 15:13:00,16.0,10.0,30.45,NNW,341,5.0,10.0,78,0.00,,,0.00,,2013-01-20 21:13:00,
2013-01-20 15:23:00,16.0,11.0,30.45,NW,305,4.0,10.0,79,0.00,,,0.00,,2013-01-20 21:23:00,
2013-01-20 15:33:00,16.0,11.0,30.44,NW,325,3.0,10.0,81,0.00,,,0.00,,2013-01-20 21:33:00,
2013-01-20 15:43:00,16.0,11.0,30.44,NW,325,3.0,10.0,81,0.00,,,0.00,,2013-01-20 21:43:00,
2013-01-20 15:53:00,16.0,10.0,30.44,NW,319,9.0,14.0,78,0.00,,,0.00,,2013-01-20 21:53:00,
2013-01-20 16:03:00,16.0,11.0,30.45,North,351,6.0,10.0,79,0.00,,,0.00,,2013-01-20 22:03:00,
2013-01-20 16:12:00,16.0,11.0,30.45,North,351,6.0,10.0,79,0.00,,,0.00,,2013-01-20 22:12:00,
2013-01-20 16:22:00,16.0,10.0,30.45,North,9,4.0,11.0,78,0.00,,,0.00,,2013-01-20 22:22:00,
2013-01-20 16:33:00,16.0,10.0,30.45,NW,311,4.0,12.0,78,0.00,,,0.00,,2013-01-20 22:33:00,
2013-01-20 16:43:00,16.0,10.0,30.45,NW,311,4.0,12.0,78,0.00,,,0.00,,2013-01-20 22:43:00,
2013-01-20 16:53:00,16.0,10.0,30.44,NNW,346,4.0,10.0,78,0.00,,,0.00,,2013-01-20 22:53:00,
2013-01-20 17:03:00,16.0,10.0,30.45,NW,320,5.0,11.0,78,0.00,,,0.00,,2013-01-20 23:03:00,
2013-01-20 17:13:00,16.0,10.0,30.45,NW,320,5.0,11.0,78,0.00,,,0.00,,2013-01-20 23:13:00,
2013-01-20 17:23:00,16.0,10.0,30.45,NW,304,6.0,12.0,78,0.00,,,0.00,,2013-01-20 23:23:00,
2013-01-20 17:33:00,15.0,9.0,30.45,NW,305,5.0,10.0,78,0.00,,,0.00,,2013-01-20 23:33:00,
2013-01-20 17:43:00,15.0,9.0,30.45,NW,305,5.0,10.0,78,0.00,,,0.00,,2013-01-20 23:43:00,
2013-01-20 17:53:00,15.0,10.0,30.45,WNW,302,3.0,7.0,80,0.00,,,0.00,,2013-01-20 23:53:00,
2013-01-20 18:03:00,15.0,10.0,30.46,NW,308,3.0,8.0,80,0.00,,,0.00,,2013-01-21 00:03:00,
2013-01-20 18:13:00,15.0,10.0,30.46,NW,308,3.0,8.0,80,0.00,,,0.00,,2013-01-21 00:13:00,
2013-01-20 18:22:00,14.0,9.0,30.46,WNW,286,6.0,10.0,81,0.00,,,0.00,,2013-01-21 00:22:00,
2013-01-20 18:33:00,14.0,9.0,30.46,NW,321,5.0,10.0,81,0.00,,,0.00,,2013-01-21 00:33:00,
2013-01-20 18:43:00,14.0,9.0,30.46,NW,321,5.0,10.0,81,0.00,,,0.00,,2013-01-21 00:43:00,
2013-01-20 18:53:00,14.0,9.0,30.47,WNW,300,4.0,10.0,80,0.00,,,0.00,,2013-01-21 00:53:00,
2013-01-20 19:03:00,13.0,8.0,30.47,WNW,302,3.0,8.0,80,0.00,,,0.00,,2013-01-21 01:03:00,
2013-01-20 19:13:00,13.0,8.0,30.47,WNW,302,3.0,8.0,80,0.00,,,0.00,,2013-01-21 01:13:00,
2013-01-20 19:23:00,13.0,8.0,30.47,WNW,300,3.0,5.0,81,0.00,,,0.00,,2013-01-21 01:23:00,
2013-01-20 19:33:00,13.0,8.0,30.47,WNW,300,4.0,6.0,81,0.00,,,0.00,,2013-01-21 01:33:00,
2013-01-20 19:43:00,13.0,8.0,30.47,WNW,300,4.0,6.0,81,0.00,,,0.00,,2013-01-21 01:43:00,
2013-01-20 19:53:00,12.0,7.0,30.47,NW,315,3.0,6.0,81,0.00,,,0.00,,2013-01-21 01:53:00,
2013-01-20 20:03:00,12.0,7.0,30.48,NW,309,3.0,7.0,81,0.00,,,0.00,,2013-01-21 02:03:00,
2013-01-20 20:12:00,12.0,7.0,30.48,NW,309,3.0,7.0,81,0.00,,,0.00,,2013-01-21 02:12:00,
2013-01-20 20:23:00,12.0,7.0,30.48,NNW,329,2.0,7.0,81,0.00,,,0.00,,2013-01-21 02:23:00,
2013-01-20 20:33:00,12.0,7.0,30.48,NNW,336,3.0,9.0,81,0.00,,,0.00,,2013-01-21 02:33:00,
2013-01-20 20:43:00,12.0,7.0,30.48,NNW,336,3.0,9.0,81,0.00,,,0.00,,2013-01-21 02:43:00,
2013-01-20 20:53:00,12.0,7.0,30.48,NNW,336,3.0,9.0,81,0.00,,,0.00,,2013-01-21 02:53:00,
2013-01-20 21:03:00,12.0,7.0,30.48,WNW,298,4.0,8.0,81,0.00,,,0.00,,2013-01-21 03:03:00,
2013-01-20 21:12:00,12.0,7.0,30.48,WNW,298,4.0,8.0,81,0.00,,,0.00,,2013-01-21 03:12:00,
2013-01-20 21:23:00,12.0,7.0,30.48,WNW,302,5.0,11.0,80,0.00,,,0.00,,2013-01-21 03:23:00,
2013-01-20 21:33:00,12.0,7.0,30.47,WNW,290,2.0,10.0,81,0.00,,,0.00,,2013-01-21 03:33:00,
2013-01-20 21:43:00,12.0,7.0,30.47,WNW,290,2.0,10.0,81,0.00,,,0.00,,2013-01-21 03:43:00,
2013-01-20 21:53:00,12.0,7.0,30.47,NW,315,2.0,7.0,80,0.00,,,0.00,,2013-01-21 03:53:00,
2013-01-20 22:03:00,13.0,8.0,30.47,NW,319,2.0,4.0,80,0.00,,,0.00,,2013-01-21 04:03:00,
2013-01-20 22:12:00,13.0,8.0,30.47,NW,319,2.0,4.0,80,0.00,,,0.00,,2013-01-21 04:12:00,
2013-01-20 22:23:00,13.0,8.0,30.47,NW,319,2.0,4.0,80,0.00,,,0.00,,2013-01-21 04:23:00,
2013-01-20 22:32:00,13.0,8.0,30.47,WNW,302,3.0,8.0,79,0.00,,,0.00,,2013-01-21 04:32:00,
2013-01-20 22:42:00,13.0,8.0,30.47,WNW,302,3.0,8.0,79,0.00,,,0.00,,2013-01-21 04:42:00,
2013-01-20 22:53:00,13.0,8.0,30.47,WNW,302,3.0,8.0,79,0.00,,,0.00,,2013-01-21 04:53:00,
2013-01-20 23:03:00,13.0,8.0,30.47,WNW,302,3.0,8.0,79,0.00,,,0.00,,2013-01-21 05:03:00,
2013-01-20 23:12:00,13.0,8.0,30.47,WNW,302,3.0,8.0,79,0.00,,,0.00,,2013-01-21 05:12:00,
2013-01-20 23:22:00,14.0,8.0,30.47,WNW,285,6.0,11.0,76,0.00,,,0.00,,2013-01-21 05:22:00,
2013-01-20 23:34:00,14.0,8.0,30.47,WNW,300,6.0,15.0,75,0.00,,,0.00,,2013-01-21 05:34:00,
2013-01-20 23:42:00,14.0,8.0,30.47,WNW,300,6.0,15.0,75,0.00,,,0.00,,2013-01-21 05:42:00,
2013-01-20 23:53:00,14.0,8.0,30.47,NW,305,6.0,12.0,76,0.00,,,0.00,,2013-01-21 05:53:00,